Вернуться в каталог

EUTE 1-F5

ECS 5

АктивенСвязьGEO
NORAD 19331·PAYLOAD·🇪🇺 EU

Запущен Jul 21, 1988 с Guiana Space Centre

Loading…

TLE

СвежийSource: Space-Track

Эпоха: Sep 14, 2026, 11:23 UTC

1 19331U 88063B   26257.47489181 -.00000212  00000-0  00000-0 0  9992
2 19331  14.5067 345.3195 0011767 176.4702 176.2468  0.98167060115212

Отслеживайте EUTE 1-F5 в реальном времени с AllMySat

Download on the App Store